This is the latest recevied weather packets stored in our database for station/object EA4BHK-10. If no packets are shown the sender has not sent any weather packets the latest 10 day(s).
| Time | Temp. | Humidity | Pressure | Rain* | Wind** | Luminosity | Snow |
|---|---|---|---|---|---|---|---|
| 1787891863 | 12.78° C | 62% | 1022.4 hPa | - | - | - | - |
| 1787890963 | 12.78° C | 62% | 1022.4 hPa | - | - | - | - |
| 1787890063 | 13.33° C | 60% | 1022.1 hPa | - | - | - | - |
| 1787889163 | 12.78° C | 61% | 1022.2 hPa | - | - | - | - |
| 1787888263 | 13.33° C | 60% | 1022 hPa | - | - | - | - |
| 1787887363 | 13.33° C | 60% | 1021.9 hPa | - | - | - | - |
| 1787886463 | 13.89° C | 60% | 1022 hPa | - | - | - | - |
| 1787885563 | 13.89° C | 58% | 1021.9 hPa | - | - | - | - |
| 1787883850 | 14.44° C | 57% | 1021.5 hPa | - | - | - | - |
| 1787880232 | 15° C | 55% | 1020.9 hPa | - | - | - | - |
| 1787879328 | 15.56° C | 55% | 1020.7 hPa | - | - | - | - |
| 1787878423 | 15.56° C | 55% | 1020.5 hPa | - | - | - | - |
| 1787877519 | 16.11° C | 54% | 1020.4 hPa | - | - | - | - |
| 1787876611 | 16.11° C | 53% | 1020.6 hPa | - | - | - | - |
| 1787875711 | 16.67° C | 52% | 1020.5 hPa | - | - | - | - |
| 1787874806 | 16.67° C | 51% | 1020.5 hPa | - | - | - | - |
| 1787873901 | 17.22° C | 50% | 1020.1 hPa | - | - | - | - |
| 1787872989 | 17.78° C | 48% | 1019.9 hPa | - | - | - | - |
| 1787872089 | 17.78° C | 48% | 1019.6 hPa | - | - | - | - |
| 1787871175 | 18.33° C | 47% | 1019.4 hPa | - | - | - | - |
| 1787870275 | 18.33° C | 46% | 1019.2 hPa | - | - | - | - |
| 1787869375 | 18.33° C | 45% | 1019 hPa | - | - | - | - |
| 1787868475 | 18.33° C | 45% | 1019 hPa | - | - | - | - |
| 1787867575 | 18.33° C | 45% | 1018.9 hPa | - | - | - | - |
| 1787866675 | 18.89° C | 44% | 1018.6 hPa | - | - | - | - |
* Rain since midnight (hover to see other rain measurements)
** Current wind speed in m/s (hover to see current wind gust speed)